This is the latest recevied weather packets stored in our database for station/object KC9DRE. If no packets are shown the sender has not sent any weather packets the latest 10 day(s).
| Time | Temp. | Humidity | Pressure | Rain* | Wind** | Luminosity | Snow |
|---|---|---|---|---|---|---|---|
| 1787669880 | 25.56° C | 58% | 1021 hPa | 0 mm | - | 489 W/m² | - |
| 1787669575 | 25.56° C | 56% | 1020.9 hPa | 0 mm | - | 566 W/m² | - |
| 1787669271 | 25° C | 57% | 1020.9 hPa | 0 mm | - | 552 W/m² | - |
| 1787668966 | 25° C | 58% | 1021.1 hPa | 0 mm | - | 535 W/m² | - |
| 1787668662 | 25° C | 58% | 1021 hPa | 0 mm | - | 519 W/m² | - |
| 1787668358 | 24.44° C | 60% | 1020.8 hPa | 0 mm | - | 503 W/m² | - |
| 1787668058 | 24.44° C | 60% | 1020.8 hPa | 0 mm | - | 487 W/m² | - |
| 1787667754 | 25° C | 60% | 1020.8 hPa | 0 mm | - | 476 W/m² | - |
| 1787667449 | 23.89° C | 65% | 1021 hPa | 0 mm | - | 461 W/m² | - |
| 1787667145 | 23.33° C | 63% | 1021.2 hPa | 0 mm | - | 444 W/m² | - |
| 1787666845 | 23.89° C | 64% | 1021.1 hPa | 0 mm | - | 434 W/m² | - |
| 1787666540 | 23.89° C | 67% | 1021.2 hPa | 0 mm | - | 446 W/m² | - |
| 1787666236 | 23.33° C | 66% | 1021.1 hPa | 0 mm | - | 440 W/m² | - |
| 1787665931 | 23.33° C | 68% | 1021.1 hPa | 0 mm | - | 431 W/m² | - |
| 1787665626 | 23.33° C | 72% | 1021 hPa | 0 mm | - | 422 W/m² | - |
| 1787665326 | 23.33° C | 76% | 1021 hPa | 0 mm | - | 403 W/m² | - |
| 1787665023 | 22.22° C | 80% | 1021 hPa | 0 mm | - | 353 W/m² | - |
| 1787664719 | 21.67° C | 84% | 1021 hPa | 0 mm | - | 308 W/m² | - |
| 1787664418 | 21.11° C | 84% | 1021.1 hPa | 0 mm | - | 269 W/m² | - |
| 1787664114 | 20.56° C | 85% | 1021.3 hPa | 0 mm | - | 239 W/m² | - |
| 1787663813 | 19.44° C | 89% | 1020.9 hPa | 0 mm | - | 214 W/m² | - |
| 1787663508 | 18.33° C | 93% | 1021 hPa | 0 mm | - | 194 W/m² | - |
| 1787663204 | 17.78° C | 96% | 1020.9 hPa | 0 mm | - | 176 W/m² | - |
| 1787662900 | 17.22° C | 97% | 1020.9 hPa | 0 mm | - | 138 W/m² | - |
| 1787662599 | 17.22° C | 99% | 1020.9 hPa | 0 mm | - | 121 W/m² | - |
* Rain latest hour (hover to see other rain measurements)
** Current wind speed in m/s (hover to see current wind gust speed)